Regional Weather Roundup
Issued by NWS Charleston, SC

Current Version | Previous Version | Text Only | Print | Product List | Glossary Off
Versions: 1 2 3 4 5 6 7 8 9 10 11 12 13 14 15 16 17 18 19 20 21 22 23 24 25 26 27 28 29 30 31 32 33 34 35 36 37 38 39 40 41 42 43 44 45 46 47 48 49 50

000
ASUS42 KCHS 210326
RWRCHS

REGIONAL WEATHER ROUNDUP
NATIONAL WEATHER SERVICE CHARLESTON SC
1100 PM EDT MON APR 20 2015

NOTE: "FAIR" INDICATES FEW OR NO CLOUDS BELOW 12,000 FEET WITH NO
SIGNIFICANT WEATHER AND/OR OBSTRUCTIONS TO VISIBILITY.

NOT ALL STATIONS ARE QUALITY CONTROLLED BY THE NATIONAL
WEATHER SERVICE. USE DATA WITH CAUTION...ESPECIALLY
DEWPOINT OBSERVATIONS.

SCZ027-030-031-034>040-042>050-210400-
...SOUTHEAST SOUTH CAROLINA...

CITY           SKY/WX    TMP DP  RH WIND       PRES   REMARKS
N CHARLESTON   PTCLDY    69  57  65 SW14      29.82R
WATERFRONT PRK NOT AVBL
MOUNT PLEASANT FAIR      72  59  64 CALM      29.82R
PINOPOLIS      NOT AVBL
MONCKS CORNER  FAIR      68  61  77 SW13      29.81R
SUMMERVILLE    FAIR      66  63  88 CALM      29.83R
BEAUFORT MCAS  PTCLDY    69  59  70 SW14      29.84R
BEAUFORT ARPT  FAIR      70  61  73 SW10G18   29.84R
HILTON HEAD IS MOCLDY    70  61  73 SW10      29.86R
WALTERBORO     PTCLDY    64  59  82 SW10G18   29.83R
ALLENDALE      FAIR      66  61  82 VRB3      29.81R

...SOUTHERN MIDLANDS AND PEE DEE...

CITY           SKY/WX    TMP DP  RH WIND       PRES   REMARKS
GEORGETOWN     NOT AVBL
KINGSTREE      NOT AVBL
ORANGEBURG     CLEAR     66  60  81 SW10      29.78R
BARNWELL       FAIR      66  61  82 SW8       29.81R
AIKEN          FAIR      64  57  77 SW10      29.82R
MANNING        FAIR      68  61  77 SW10G18   29.78R
COLUMBIA       PTCLDY    68  59  73 SW8       29.75R
SUMTER         CLEAR     66  62  87 SW16      29.73R
FLORENCE       PTCLDY    68  63  84 SW8       29.75R
MYRTLE BEACH   CLOUDY    70  63  78 S12G21    29.80S
N MYRTLE BEACH CLOUDY    69  65  86 S18G26    29.78S

$$

GAZ063-065-086>088-099>101-113>116-118-119-134>141-150-210400-
...SOUTHEAST GEORGIA...

CITY           SKY/WX    TMP DP  RH WIND       PRES   REMARKS
SAVANNAH ARPT  MOCLDY    67  57  70 SW10      29.85R
HUNTER AAF     MOCLDY    68  61  78 SW8       29.84R
FORT STEWART   PTCLDY    66  59  77 SW7       29.85R
STATESBORO       N/A     65  61  87 SW6       29.84R
SYLVANIA       CLEAR     64  61  90 SW5       29.84R
CLAXTON        FAIR      64  61  88 SW5       29.85R

...CSRA...CENTRAL AND FAR SOUTHEAST GEORGIA...

CITY           SKY/WX    TMP DP  RH WIND       PRES   REMARKS
THOMSON        MOCLDY    68  65  90 CALM      29.86R
AUGUSTA-BUSH   CLEAR     66  60  81 SW8       29.78R
AUGUSTA-DANIEL CLEAR     67  60  78 SW8       29.79R
SWAINSBORO     NOT AVBL
VIDALIA        CLEAR     64  61  88 SW6       29.85R
EASTMAN        FAIR      67  67 100 W6        29.87R
HAZLEHURST     FAIR      66  64  95 S5        29.86R
ALMA           PTCLDY    64  60  87 S6        29.86R
WAYCROSS       MOCLDY    66  65  96 SW7       29.88S
JESUP          FAIR      64  63  94 W5        29.88S
BAXLEY         FAIR      66  63  88 SW6       29.87R
BRUNSWICK      PTCLDY    64  61  88 SW8       29.90R
SAINT SIMONS   PTCLDY    65  62  90 SW10      29.88R

$$

SCZ027-028-034-036>038-045-046-048>050-GAZ119-141-210400-
...LAKE AND SUPPLEMENTAL COASTAL OBSERVATIONS...

STATION/POSITION TIME  TEMP    WIND        PRES    WAVE   SWELL
                       AIR SEA DIR/SP/G            HT/PER HT/PER/DIR
                 (UTC) (F)     (DEG/KT/KT) (MB)    (FT/S) (FT/S/D)
UPR LAKE MARION  NOT AVBL
WINYAH BAY       0200   69     190/  9     1008.0
LAKE MURRAY      0200   68     200/  9/ 13 1006.4R
ACE BASIN NERRS  NOT AVBL
FORT PULASKI     0300   69 71  220/  9/ 17 1011.2R
SAPELO ISLAND    0300   67     220/ 11     1011.0S

$$

ANZ835-935-AMZ111-154-330-350-352-354-370-450-454-472-210400-
...C-MAN AND BUOY OBSERVATIONS...

STATION/POSITION TIME  TEMP    WIND        PRES    WAVE   SWELL
                       AIR SEA DIR/SP/G            HT/PER HT/PER/DIR
                 (UTC) (F)     (DEG/KT/KT) (MB)    (FT/S) (FT/S/D)
BUOY 41004       0250   73 74  250/ 17/ 21 1009.4R   4/ 5   2/ 8
BUOY 41008       0250   68 68  240/ 12/ 16 1011.3R   3/ 4   2/ 90/ 9
FOLLY BEACH CMAN 0300   69     230/ 11/ 15 1009.9R
CAPERS NEARSHORE NOT AVBL
FRIPP NEARSHORE  NOT AVBL


STATION/POSITION TIME  TEMP    WIND        PRES    WAVE   SWELL
                       AIR SEA DIR/SP/G            HT/PER HT/PER/DIR
                 (UTC) (F)     (DEG/KT/KT) (MB)    (FT/S) (FT/S/D)
5E ST. MARYS GA  0221      70                N/A     2/12   2/ 90/12
FRYING PAN BUOY  0250   74 73  240/ 16/ 17 1010.1R   4/ 6   2/ 90/ 8
BUOY 41025       0250   75 75  210/ 21/ 27 1007.7F   6/ 6   2/100/ 9
CAPE LOOKOUT NC  0300   68     250/ 10/ 12 1008.4R
BUOY 41002       0250   73 73  220/ 17/ 21 1012.7F   4/ 6   2/ 50/13
BUOY 41010       0220   74 78  330/ 16/ 19 1014.5R
ST AUGUSTINE FL  0300   66 63  220/  4/  6 1013.3R


$$



USA.gov is the U.S. government's official web portal to all federal, state and local government web resources and services.